Regional Weather Roundup
Issued by NWS

Home | Current Version | Previous Version | Text Only | Print | Product List | Glossary On
Versions: 1 2 3 4 5 6 7 8 9 10 11 12 13 14 15 16 17 18 19 20 21 22 23 24 25 26 27 28 29 30 31 32 33 34 35 36 37 38 39 40 41 42 43 44 45 46 47 48 49 50
000
ASUS43 KDTX 291510
RWRMI
MICHIGAN HOURLY REGIONAL WEATHER ROUNDUP
NATIONAL WEATHER SERVICE DETROIT/PONTIAC MI
1100 AM EDT FRI APR 29 2016

NOTE: "FAIR" INDICATES FEW OR NO CLOUDS BELOW 12,000 FEET WITH NO
SIGNIFICANT WEATHER AND/OR OBSTRUCTION TO VISIBILITY.

MIZ047>049-052>055-059>063-066>070-074>076-081>083-291600-
SOUTHEAST LOWER MICHIGAN

CITY           SKY/WX    TMP DP  RH WIND       PRES   REMARKS
ADRIAN         CLOUDY    48  35  60 NE7       30.04S
ALMA           LGT RAIN  41  38  89 NE10G20   30.10F
ANN ARBOR      CLOUDY    47  34  60 NE9       30.04F
BAD AXE        CLOUDY    43  32  64 NE7       30.12R
CARO           LGT RAIN  40  35  80 CALM      30.11R
DETROIT CITY   CLOUDY    44  34  67 NE6       30.06S
DETROIT        CLOUDY    44  36  73 N9        30.06S
FLINT          LGT RAIN  43  34  70 N12       30.10R
GROSSE ILE     CLOUDY    45  37  76 N9        30.04F
HILLSDALE      CLOUDY    46  36  69 N7        30.04S
HOWELL         CLOUDY    43  37  78 N6        30.07R

CITY           SKY/WX    TMP DP  RH WIND       PRES   REMARKS
JACKSON        CLOUDY    45  36  70 N6        30.05S
LAMBERTVILLE   CLOUDY    49  36  59 CALM      30.04S
LANSING        LGT RAIN  42  37  82 N10       30.08F
LAPEER         LGT RAIN  43  32  64 NE6       30.08R
MASON          CLOUDY    44  37  76 NE6       30.07S
MONROE         CLOUDY    47  38  71 N7        30.04S
MT. CLEMENS    CLOUDY    44  35  70 N6        30.05S
PONTIAC        CLOUDY    43  33  68 NE3       30.05S
PORT HOPE        N/A     41  35  79 E7        30.11R
PORT HURON     DRIZZLE   43  32  65 NE10      30.07R
TRI CITIES     CLOUDY    47  38  71 NE8       30.11S
MIDLAND        CLOUDY    45  34  66 NE8       30.10F
TROY           CLOUDY    44  34  66 N3        30.07S
SAGINAW HB     LGT SNOW  41  34  75 NE8       30.11R
$$
MIZ043>046-050>051-056>058-064>065-071>073-077>080-291600-
SOUTHWEST LOWER MICHIGAN

CITY           SKY/WX    TMP DP  RH WIND       PRES   REMARKS
BATTLE CREEK   CLOUDY    45  38  76 NE7       30.06F
BENTON HARBOR  CLOUDY    48  42  80 CALM      30.05R
BIG RAPIDS     CLOUDY    41  37  84 NE5       30.09F
COLDWATER      FLURRIES  44  39  83 CALM      30.05R
FREMONT        CLOUDY    42  39  90 NE7       30.09S
HOLLAND        CLOUDY    45  39  79 E7        30.08S
GRAND RAPIDS   CLOUDY    44  37  76 NE13      30.08S
IONIA          CLOUDY    41  36  81 N9        30.08S
KALAMAZOO      CLOUDY    46  40  79 VRB5      30.06S
LUDINGTON      CLOUDY    42  38  87 E5        30.12S
MARSHALL       CLOUDY    45  37  74 N3        30.06S
MOUNT PLEASANT CLOUDY    44  33  66 NE7       30.09F
MUSKEGON       CLOUDY    44  35  70 E8        30.09S
SOUTH HAVEN    CLOUDY    44  43  97 NE7       30.06R FOG
$$
MIZ016>042-291600-
NORTHERN LOWER MICHIGAN

CITY           SKY/WX    TMP DP  RH WIND       PRES   REMARKS
ALPENA         CLOUDY    45  32  60 N5        30.14S
BEAVER ISLAND  CLOUDY    48  31  50 E6        30.15S
BELLAIRE       CLOUDY    48  28  46 N7        30.13S
CADILLAC       CLOUDY    44  29  55 CALM      30.10R
CHARLEVOIX     CLOUDY    47  30  51 CALM      30.17R
FRANKFORT      CLOUDY    48  31  52 E7        30.13R
GAYLORD        CLOUDY    43  28  55 E3        30.11S
GRAYLING       CLOUDY    49  32  51 E5        30.11S
HARBOR SPRINGS CLOUDY    45  31  58 E6        30.14S
HOUGHTON LAKE  MOSUNNY   48  32  53 E10       30.10F
MANISTEE       CLOUDY    45  30  57 W6        30.12S
OSCODA         CLOUDY    46  32  58 CALM      30.13R
PELLSTON       CLOUDY    45  30  55 E5        30.15S
ROGERS CITY    CLOUDY    39  33  80 NE5       30.17R
TRAVERSE CITY  CLOUDY    47  30  51 N6        30.12R
$$
MIZ007>008-015-291600-
EASTERN UPPER MICHIGAN

CITY           SKY/WX    TMP DP  RH WIND       PRES   REMARKS
KINROSS          N/A     48  27  43 CALM      30.15S
MACKINAC ISLAN CLOUDY    43  30  59 E10       30.16R
NEWBERRY       SUNNY     52  29  41 CALM      30.14S
S. S. MARIE    SUNNY     48  27  44 CALM      30.15F
MUNISING         N/A     43  33  68 N8        30.17S
$$
MIZ004>006-011>014-085-291600-
CENTRAL UPPER MICHIGAN

CITY           SKY/WX    TMP DP  RH WIND       PRES   REMARKS
MANISTIQUE     SUNNY     51  29  43 SE6       30.15S
ESCANABA       CLOUDY    46  19  34 E5        30.16S
MENOMINEE      CLOUDY    45  30  57 E8        30.14F
SAWYER-GWINN   CLOUDY    46  27  46 NE3       30.17F
$$
MIZ001>003-009>011-084-291600-
WESTERN UPPER MICHIGAN

CITY           SKY/WX    TMP DP  RH WIND       PRES   REMARKS
IRON MOUNTAIN  CLOUDY    45  29  53 NE6       30.15R
HOUGHTON       SUNNY     47  27  45 VRB3      30.16R
COPPER HARBOR    N/A     41  35  79 NE6       30.18R
IRONWOOD         N/A     45  27  49 CALM      30.15S
$$

ABBREVIATIONS USED IN REMARKS
   TC - TEMPERATURE IN CELSIUS
  WCI - WIND CHILL INDEX
   HX - HEAT INDEX
  VSB - VISIBILITY





USA.gov is the U.S. government's official web portal to all federal, state and local government web resources and services.